WetterOnline ( https://www.wetteronline.de )

Wetter aktuell Ostseebad Ahrenshoop

Aktuelles Wetter: Barth (7m)

6-stündlich | Neueste Meldungen
Ortszeit Temperatur Wetter
Mi, 27.05. 2:00 5.7° C wolkig
Di, 26.05. 20:00 16.6° C leicht bewölkt
Di, 26.05. 14:00 18.1° C fast wolkenlos
Di, 26.05. 8:00 13.0° C wolkenlos
Di, 26.05. 2:00 5.4° C leicht bewölkt
Mo, 25.05. 20:00 14.4° C wolkenlos
Mo, 25.05. 14:00 13.9° C bewölkt
Mo, 25.05. 8:00 11.0° C bedeckt
Ortszeit Temperatur Wetter
Mi, 27.05. 6:00 6.4° C leicht bewölkt
Mi, 27.05. 5:40 5.5° C leicht bewölkt
Mi, 27.05. 5:30 4.9° C fast wolkenlos
Mi, 27.05. 5:20 4.9° C fast wolkenlos
Mi, 27.05. 5:10 5.4° C fast wolkenlos
Mi, 27.05. 5:00 4.0° C fast wolkenlos
Mi, 27.05. 4:50 4.0° C fast wolkenlos
Mi, 27.05. 4:30 4.5° C wolkenlos
Mi, 27.05. 4:00 5.7° C wolkenlos
Mi, 27.05. 3:30 4.9° C fast wolkenlos
Mi, 27.05. 3:00 5.0° C leicht bewölkt
Mi, 27.05. 2:30 6.2° C leicht bewölkt
Ortszeit Relative Feuchte Sichtweite
Mi, 27.05. 2:00 95% 7 km
Di, 26.05. 20:00 55% >70 km
Di, 26.05. 14:00 55% 50 km
Di, 26.05. 8:00 84% 25 km
Di, 26.05. 2:00 98% 12 km
Mo, 25.05. 20:00 70% 35 km
Mo, 25.05. 14:00 73% 30 km
Mo, 25.05. 8:00 82% 35 km
Ortszeit Relative Feuchte Sichtweite
Mi, 27.05. 6:00 93% 50 km
Mi, 27.05. 5:40 95% -
Mi, 27.05. 5:30 95% 30 km
Mi, 27.05. 5:20 95% -
Mi, 27.05. 5:10 97% -
Mi, 27.05. 5:00 95% 35 km
Mi, 27.05. 4:50 95% -
Mi, 27.05. 4:30 97% 29 km
Mi, 27.05. 4:00 98% 22 km
Mi, 27.05. 3:30 97% 27 km
Mi, 27.05. 3:00 95% 15 km
Mi, 27.05. 2:30 97% 20 km
Ortszeit Niederschlagsmenge Niederschlagsart
Mi, 27.05. 2:00 0.0 l/m2 in 6 Std. -
Di, 26.05. 20:00 0.0 l/m2 in 12 Std. -
Di, 26.05. 14:00 0.0 l/m2 in 6 Std. -
Di, 26.05. 8:00 0.0 l/m2 in 12 Std. -
Di, 26.05. 2:00 0.0 l/m2 in 6 Std. -
Mo, 25.05. 20:00 0.2 l/m2 in 12 Std. -
Mo, 25.05. 14:00 0.2 l/m2 in 6 Std. Regen
Mo, 25.05. 8:00 0.6 l/m2 in 12 Std. Regen
Ortszeit Niederschlagsmenge Niederschlagsart
Mi, 27.05. 6:00 0.0 l/m2 in 1 Std. -
Mi, 27.05. 5:40 keine Meldung -
Mi, 27.05. 5:30 0.0 l/m2 in 1 Std. -
Mi, 27.05. 5:20 keine Meldung -
Mi, 27.05. 5:10 keine Meldung -
Mi, 27.05. 5:00 0.0 l/m2 in 1 Std. -
Mi, 27.05. 4:50 keine Meldung -
Mi, 27.05. 4:30 0.0 l/m2 in 1 Std. -
Mi, 27.05. 4:00 0.0 l/m2 in 1 Std. -
Mi, 27.05. 3:30 0.0 l/m2 in 1 Std. -
Mi, 27.05. 3:00 0.0 l/m2 in 1 Std. -
Mi, 27.05. 2:30 0.0 l/m2 in 1 Std. -
Ortszeit Stärke Spitze Richtung
km/h Bft. km/h Grad Sektor
Mi, 27.05. 2:00 0 0 11 - -
Di, 26.05. 20:00 7 2 29 60° NO
Di, 26.05. 14:00 15 3 22 60° NO
Di, 26.05. 8:00 7 2 11 350° N
Di, 26.05. 2:00 2 1 15 230° SW
Mo, 25.05. 20:00 9 2 35 360° N
Mo, 25.05. 14:00 14 3 32 320° NW
Mo, 25.05. 8:00 19 3 44 300° NW
Ortszeit Stärke Spitze Richtung
km/h Bft. km/h Grad Sektor
Mi, 27.05. 6:00 0 0 4 - -
Mi, 27.05. 5:40 4 1 - 150° SO
Mi, 27.05. 5:30 2 1 4 170° S
Mi, 27.05. 5:20 2 1 - 170° S
Mi, 27.05. 5:10 2 1 - 160° S
Mi, 27.05. 5:00 0 0 4 - -
Mi, 27.05. 4:50 2 1 - 160° S
Mi, 27.05. 4:30 4 1 4 160° S
Mi, 27.05. 4:00 0 0 4 - -
Mi, 27.05. 3:30 4 1 4 150° SO
Mi, 27.05. 3:00 2 1 4 170° S
Mi, 27.05. 2:30 4 1 4 160° S
Ortszeit Untergrenze Bedeckung Gattung
total tief tief mittel hoch
Mi, 27.05. 2:00 7200 m 8/8 0/8 - - -
Di, 26.05. 20:00 7200 m 7/8 0/8 - - -
Di, 26.05. 14:00 9000 m 2/8 0/8 - - -
Di, 26.05. 8:00 - 0/8 0/8 - - -
Di, 26.05. 2:00 1500 m 3/8 3/8 - - -
Mo, 25.05. 20:00 - 0/8 0/8 - - -
Mo, 25.05. 14:00 870 m 7/8 8/8 - - -
Mo, 25.05. 8:00 480 m 8/8 8/8 - - -
Ortszeit Bedeckungsgrad in Achtel und Wolkenuntergrenze
Mi, 27.05. 6:00 3(10500m)
Mi, 27.05. 5:40 3(10500m)
Mi, 27.05. 5:30 2(10500m)
Mi, 27.05. 5:20 2(10500m)
Mi, 27.05. 5:10 2(10500m)
Mi, 27.05. 5:00 1(10500m)
Mi, 27.05. 4:50 1(10500m)
Mi, 27.05. 4:30 keine Wolken
Mi, 27.05. 4:00 keine Wolken
Mi, 27.05. 3:30 2(7200m)
Mi, 27.05. 3:00 3(6900m) 3(9000m)
Mi, 27.05. 2:30 5(7200m) 5(8400m) 6(10500m)
Ortszeit Luftdruck NN (hPa) Tendenz (hPa in 3 Std.)
Mi, 27.05. 2:00 1034 - 0,7
Di, 26.05. 20:00 1035 - 0,3
Di, 26.05. 14:00 1035 + 0,1
Di, 26.05. 8:00 1035 + 1,2
Di, 26.05. 2:00 1033 + 0,6
Mo, 25.05. 20:00 1031 + 1,6
Mo, 25.05. 14:00 1028 + 1,7
Mo, 25.05. 8:00 1024 + 1,6
Ortszeit Luftdruck NN (hPa) Tendenz (hPa in 3 Std.)
Mi, 27.05. 6:00 1033 - 0,8
Mi, 27.05. 5:40 1033 keine Meldung
Mi, 27.05. 5:30 1034 - 0,8
Mi, 27.05. 5:20 1034 keine Meldung
Mi, 27.05. 5:10 1034 keine Meldung
Mi, 27.05. 5:00 1034 - 0,9
Mi, 27.05. 4:50 1034 keine Meldung
Mi, 27.05. 4:30 1034 - 0,8
Mi, 27.05. 4:00 1034 - 0,6
Mi, 27.05. 3:30 1034 - 0,7
Mi, 27.05. 3:00 1034 - 0,5
Mi, 27.05. 2:30 1034 - 0,5
Ortszeit Schneehöhe (cm)
Mi, 27.05. 2:00 -
Di, 26.05. 20:00 -
Di, 26.05. 14:00 -
Di, 26.05. 8:00 -
Di, 26.05. 2:00 -
Mo, 25.05. 20:00 -
Mo, 25.05. 14:00 -
Mo, 25.05. 8:00 -
Ortszeit Schneehöhe (cm)
Mi, 27.05. 6:00 -
Mi, 27.05. 5:40 -
Mi, 27.05. 5:30 -
Mi, 27.05. 5:20 -
Mi, 27.05. 5:10 -
Mi, 27.05. 5:00 -
Mi, 27.05. 4:50 -
Mi, 27.05. 4:30 -
Mi, 27.05. 4:00 -
Mi, 27.05. 3:30 -
Mi, 27.05. 3:00 -
Mi, 27.05. 2:30 -
Link zu dieser Seite / Seite empfehlen

Das Wetter in ...